Temp
20 20 19 19 18 18 17 17 16 16 16 15 14 14 14 13 13 12 12 12 11 10 10 10 9 9 8 9 9 9 8 8 8 6 5 4 3 2 1 -0 -1 -2 -3
20 19 19 18 18 17 16 16 16 15 15 14 14 14 14 13 13 12 12 11 11 10 10 9 8 8 7 7 7 7 7 8 8 5 4 3 2 2 0 -0 -2 -2 -3
19 19 18 17 17 16 16 16 15 14 14 14 14 13 13 13 13 12 12 11 11 9 9 8 8 7 7 7 7 7 7 8 7 5 3 3 2 0 -1 -1 -1 -3 -3
19 18 17 17 16 16 15 15 14 14 14 14 13 13 12 12 12 11 11 10 10 8 7 6 6 6 6 6 6 6 6 6 7 5 2 2 0 -1 -1 -1 -2 -3 -4
18 17 17 16 15 15 14 13 13 12 12 12 12 12 11 11 10 10 10 9 8 6 5 4 4 4 4 5 4 4 5 5 6 5 2 1 -1 -1 -1 -2 -3 -3 -3
16 16 15 14 13 13 12 12 11 10 9 9 9 9 9 9 8 9 8 7 6 5 3 3 2 2 2 2 2 2 2 3 4 4 2 0 -0 -1 -1 -1 -2 -3 -3
15 14 13 13 12 11 10 10 9 7 7 7 7 6 6 5 5 7 5 4 3 3 2 1 0 0 0 -0 -0 -1 -1 -0 0 0 1 1 0 -1 -1 -2 -2 -3 -3
13 13 12 11 10 9 8 7 6 6 6 5 2 2 2 2 3 3 2 2 1 1 0 0 -1 -1 -1 -1 -2 -2 -2 -2 -2 -2 -1 -1 -1 -1 -1 -2 -2 -2 -3
11 10 9 8 8 7 6 5 4 3 1 1 1 1 1 1 1 1 0 0 -0 -1 -1 -2 -2 -2 -3 -3 -3 -3 -4 -4 -5 -4 -4 -3 -2 -1 -2 -2 -2 -2 -3
8 7 6 6 5 4 3 2 1 0 -0 0 0 0 -0 -0 -1 -1 -1 -1 -2 -3 -3 -4 -4 -4 -5 -4 -4 -4 -5 -5 -6 -6 -5 -4 -3 -3 -3 -3 -2 -4 -4
4 4 3 2 2 1 1 0 -0 -1 -1 -1 -1 -1 -1 -1 -2 -2 -2 -2 -2 -3 -4 -4 -5 -5 -5 -5 -5 -5 -5 -6 -6 -6 -6 -6 -5 -5 -4 -3 -3 -3 -4
3 3 1 1 1 0 -0 -1 -1 -1 -2 -1 -2 -2 -2 -2 -3 -3 -3 -3 -3 -3 -4 -5 -5 -7 -7 -7 -6 -6 -6 -6 -6 -6 -6 -6 -7 -6 -6 -5 -4 -4 -4
1 1 1 1 1 -0 -1 -1 -1 -2 -2 -2 -2 -2 -3 -3 -3 -3 -5 -4 -3 -4 -4 -5 -7 -7 -8 -7 -7 -7 -7 -6 -6 -7 -7 -7 -8 -7 -7 -6 -6 -5 -5
1 0 1 -0 -0 -1 -1 -1 -1 -1 -1 -1 -2 -2 -3 -3 -4 -4 -5 -5 -5 -5 -6 -7 -7 -7 -7 -7 -7 -7 -7 -6 -7 -7 -8 -8 -8 -8 -8 -7 -7 -7 -7
1 0 -1 -1 -1 -1 -1 -0 -0 -1 -1 -1 -2 -2 -2 -3 -4 -4 -5 -5 -5 -5 -6 -7 -7 -7 -7 -7 -7 -7 -7 -7 -7 -7 -8 -8 -8 -8 -8 -8 -8 -8 -8
0 -0 -0 -1 -1 -1 -1 -2 -2 -2 -2 -2 -2 -2 -3 -3 -4 -4 -5 -5 -5 -5 -6 -6 -6 -6 -7 -7 -7 -7 -7 -7 -7 -7 -7 -7 -7 -7 -7 -7 -8 -8 -8
1 1 0 0 -1 -1 -1 -2 -4 -5 -4 -4 -3 -3 -3 -4 -4 -5 -5 -6 -6 -5 -5 -5 -6 -6 -6 -7 -7 -7 -7 -7 -7 -7 -7 -7 -7 -7 -7 -7 -7 -7 -7
2 1 1 0 -0 -1 -1 -2 -3 -4 -5 -5 -5 -5 -5 -6 -6 -6 -7 -6 -6 -6 -5 -5 -5 -5 -5 -6 -6 -6 -7 -7 -7 -6 -7 -6 -7 -7 -6 -7 -6 -7 -7
2 1 1 -0 -1 -1 -1 -2 -3 -3 -4 -5 -5 -5 -6 -6 -6 -7 -7 -6 -6 -5 -5 -5 -5 -5 -5 -5 -6 -6 -7 -7 -7 -7 -7 -7 -7 -7 -6 -6 -6 -7 -7
-0 -0 -1 -1 -1 -1 -2 -2 -3 -3 -4 -5 -5 -5 -6 -6 -6 -7 -7 -6 -5 -5 -5 -5 -5 -5 -5 -5 -6 -6 -7 -7 -7 -7 -7 -7 -7 -7 -7 -7 -7 -7 -7
-1 -1 -1 -2 -2 -2 -2 -2 -3 -3 -4 -4 -4 -5 -5 -5 -6 -6 -6 -5 -5 -5 -5 -5 -5 -5 -5 -6 -6 -6 -7 -7 -7 -7 -7 -7 -7 -7 -7 -8 -8 -8 -7
-2 -2 -2 -2 -2 -2 -2 -2 -3 -3 -4 -4 -4 -4 -5 -5 -5 -5 -5 -5 -5 -6 -6 -5 -6 -6 -6 -6 -6 -6 -7 -7 -7 -7 -7 -7 -7 -8 -7 -8 -8 -8 -8
-2 -2 -2 -2 -2 -2 -3 -3 -3 -3 -3 -3 -4 -5 -5 -5 -4 -5 -5 -5 -5 -6 -6 -6 -6 -6 -6 -6 -6 -6 -7 -7 -7 -7 -8 -8 -8 -8 -8 -8 -8 -8 -8
-2 -2 -2 -3 -3 -3 -2 -3 -3 -3 -3 -3 -4 -5 -4 -5 -5 -5 -5 -6 -6 -7 -6 -7 -6 -7 -7 -7 -7 -7 -7 -7 -8 -8 -8 -8 -8 -8 -8 -8 -9 -9 -9
-3 -3 -3 -3 -3 -3 -3 -3 -3 -3 -3 -4 -4 -4 -5 -5 -5 -5 -6 -6 -7 -7 -7 -7 -7 -7 -7 -7 -7 -8 -8 -8 -8 -8 -8 -9 -8 -8 -9 -9 -9 -10 -10
-3 -3 -3 -3 -3 -3 -3 -3 -3 -4 -4 -4 -4 -5 -5 -5 -5 -6 -6 -7 -7 -7 -8 -7 -8 -8 -8 -8 -8 -8 -8 -9 -9 -9 -9 -9 -9 -9 -9 -10 -10 -10 -10
Height
785 789 792 794 796 798 800 803 805 805 806 809 810 812 813 816 818 819 820 820 821 823 824 823 821 823 822 825 824 823 822 822 822 825 826 831 837 834 843 846 849 851 854
781 785 789 791 794 796 799 801 802 803 804 806 807 809 810 811 814 814 814 814 816 819 823 821 819 819 820 823 823 822 821 820 820 821 826 832 833 836 838 844 848 851 853
779 782 784 789 792 795 798 800 801 803 804 804 806 807 808 808 809 811 811 812 814 816 819 818 817 817 818 820 821 820 820 819 818 819 823 829 832 835 841 845 849 849 853
777 780 782 786 789 792 795 799 801 803 803 803 804 805 805 806 806 808 808 808 810 814 817 820 816 816 815 817 818 819 818 818 818 819 822 827 831 835 839 844 847 849 852
776 778 781 784 788 791 794 798 801 801 802 800 801 801 802 803 803 803 807 807 807 811 815 821 816 814 815 815 817 817 817 818 818 819 823 826 829 833 836 841 845 848 852
776 778 780 784 787 790 795 797 799 801 802 800 799 799 798 798 799 801 804 804 807 809 813 818 817 814 815 815 817 818 818 818 819 819 822 823 825 828 832 837 842 846 850
777 778 781 785 789 792 795 797 797 797 798 799 799 799 797 798 799 800 804 804 805 810 813 815 817 815 815 814 816 817 818 819 820 820 820 823 823 825 829 834 836 840 842
777 780 784 784 787 789 792 794 795 797 798 797 797 798 798 801 799 801 804 805 806 810 812 814 815 815 815 815 816 817 818 819 820 820 820 820 821 823 826 829 833 838 842
779 782 784 785 786 788 790 792 795 797 798 797 798 798 799 801 801 802 804 804 808 812 813 814 815 814 815 816 816 816 817 819 818 819 819 819 819 821 825 828 831 835 837
781 783 784 785 787 789 791 793 794 796 797 797 797 799 801 801 802 805 805 805 809 813 813 814 814 814 815 815 815 816 817 819 820 819 819 820 820 820 822 826 828 831 835
778 780 783 785 787 789 791 793 794 795 796 797 799 801 802 802 803 806 805 806 810 813 814 815 814 814 814 814 814 815 816 818 819 820 821 821 821 820 821 824 826 829 834
776 778 782 785 788 790 792 793 795 796 796 798 800 801 802 803 803 806 807 808 810 812 813 814 814 815 815 814 815 816 818 820 821 821 822 823 821 822 824 825 827 830 834
776 779 781 784 787 790 792 793 794 795 796 798 799 801 803 803 803 805 807 809 810 812 813 814 815 816 816 816 817 818 820 821 822 823 824 824 825 826 827 828 831 832 835
775 778 780 781 785 787 789 790 792 793 795 796 798 800 801 802 804 806 809 810 811 812 813 816 816 816 817 817 819 820 821 822 823 824 825 825 827 828 829 831 832 834 838
774 778 780 781 783 785 787 789 789 792 793 795 796 798 799 802 804 807 810 810 811 812 813 816 818 818 818 819 821 822 823 824 825 825 826 827 829 831 832 833 835 837 839
773 776 778 780 782 784 784 787 789 790 792 795 795 796 799 800 803 807 809 810 810 812 814 815 817 818 819 821 821 823 824 826 826 827 828 830 831 833 834 836 837 839 841
766 769 772 776 776 781 784 785 788 791 792 794 795 796 798 801 804 806 808 809 810 812 814 815 816 818 819 821 822 823 824 825 827 828 829 831 832 834 835 837 838 839 842
767 766 768 772 773 778 780 782 785 790 791 793 795 797 799 801 804 806 808 809 811 813 814 815 816 817 819 821 822 824 824 826 827 829 830 831 832 835 837 838 839 841 843
766 767 769 771 772 776 779 781 784 788 789 792 795 798 800 802 805 807 809 811 812 813 814 815 816 817 819 821 822 824 825 826 828 829 830 832 834 835 837 838 840 842 843
763 766 767 769 772 775 777 780 783 786 788 791 794 797 800 803 806 808 809 810 810 812 813 815 816 817 818 820 822 824 826 827 828 830 831 833 835 836 837 839 840 842 844
761 764 766 769 771 774 776 779 781 784 788 790 793 796 799 802 805 807 808 809 810 812 813 814 815 816 818 820 822 823 825 827 828 830 832 833 835 837 838 840 842 843 845
759 762 766 768 770 773 775 778 781 784 786 789 792 795 799 801 803 805 807 808 810 811 812 813 814 816 818 820 821 823 824 826 828 830 832 833 835 837 838 840 842 844 845
758 761 764 766 769 772 775 777 780 783 785 788 790 794 798 800 802 804 805 807 809 811 812 813 814 816 818 819 821 822 824 826 827 829 831 833 835 836 838 840 841 843 845
757 760 763 765 768 771 774 776 779 782 784 787 790 793 797 799 800 802 804 806 808 810 811 813 814 815 817 819 820 822 824 825 827 829 831 832 834 836 837 839 840 842 844
757 759 762 764 767 770 772 775 778 781 784 786 789 792 795 798 799 801 803 805 807 809 810 812 814 815 817 818 820 821 823 825 826 828 830 832 833 835 836 838 840 841 843
756 759 761 764 766 769 772 774 777 780 783 786 789 791 794 796 798 800 802 804 806 808 809 811 813 814 816 818 819 821 822 824 825 827 829 831 832 834 835 837 838 840 841
Wind_Speed
18 13 12 14 14 13 12 12 13 12 12 12 13 13 12 13 13 12 12 11 12 11 11 9 7 7 6 7 7 9 11 8 4 2 17 24 24 21 21 20 15 11 12
10 13 11 11 11 12 12 13 12 11 11 11 11 11 12 13 14 14 15 14 15 12 13 11 8 6 6 6 8 9 9 9 3 12 20 25 24 22 26 21 16 14 13
15 13 14 12 12 12 12 11 11 10 10 9 9 9 10 12 12 13 14 13 15 10 13 9 7 6 6 6 5 7 6 8 7 14 14 22 21 25 22 18 16 19 17
13 13 12 13 13 11 10 9 8 7 6 7 8 9 11 12 11 13 13 12 13 12 8 7 5 6 7 4 4 5 7 5 5 15 20 22 24 23 25 23 19 20 19
9 10 10 12 9 7 6 5 4 5 5 6 7 7 8 8 10 11 10 10 8 7 6 5 7 6 4 4 2 1 1 5 6 3 17 19 18 23 24 19 20 22 15
10 9 9 9 7 6 6 6 5 4 3 5 5 6 8 7 9 12 9 5 6 9 8 9 4 4 6 6 7 7 4 1 5 6 11 17 18 23 24 25 22 21 9
8 8 9 9 7 8 6 6 5 4 6 6 6 6 3 3 2 11 5 7 10 7 5 5 4 3 1 2 3 4 2 5 4 3 5 13 19 23 25 25 23 22 16
9 10 10 9 8 9 8 8 6 6 6 5 4 2 3 4 3 3 6 6 4 6 7 6 8 5 2 1 2 4 6 6 5 7 8 9 10 20 25 25 23 21 15
10 10 10 11 11 10 7 5 4 2 1 2 2 3 4 3 3 4 4 6 7 6 4 4 4 3 2 5 3 4 3 7 5 6 5 3 6 15 20 22 21 16 9
13 11 10 9 8 6 5 4 4 4 5 4 6 4 3 5 6 7 6 6 6 5 3 3 1 2 3 1 4 3 7 2 3 4 3 6 6 9 11 13 19 19 16
13 12 10 9 8 7 6 5 5 6 6 7 6 5 5 5 6 7 8 7 6 4 4 3 4 3 3 4 4 5 7 3 3 4 4 4 5 5 7 8 9 23 19
14 12 11 9 8 7 5 6 6 6 7 8 7 8 6 6 6 3 4 4 6 6 8 5 3 6 7 6 5 6 7 7 5 6 6 7 10 7 8 11 13 14 16
15 13 13 10 8 7 7 7 7 6 6 7 7 7 6 8 5 1 4 5 5 10 8 6 10 9 10 9 12 11 8 7 7 9 9 10 9 5 7 10 10 11 11
15 14 13 13 13 9 8 7 8 7 7 8 8 9 9 9 6 4 6 9 10 10 11 11 10 9 7 8 11 8 5 4 10 9 7 6 8 10 9 8 10 10 9
16 15 14 12 12 11 9 9 9 8 7 7 8 9 11 11 9 6 8 9 10 11 14 11 10 8 8 9 6 4 7 8 8 10 11 11 9 10 11 10 11 10 11
16 15 14 11 12 14 13 11 9 8 6 6 7 9 10 8 10 9 10 9 11 13 9 10 9 8 7 7 7 7 7 6 8 9 8 11 11 10 11 10 12 13 15
21 20 18 16 17 16 16 15 10 6 7 8 7 7 7 12 10 10 10 10 11 11 6 8 9 9 9 8 8 9 8 7 8 9 9 10 12 11 11 9 8 12 14
15 18 19 18 18 17 17 17 15 13 12 9 9 9 9 12 12 12 11 11 12 6 2 7 7 7 9 9 8 7 10 9 7 6 6 8 12 12 9 9 9 11 12
12 17 15 15 16 16 16 18 16 14 15 15 12 11 12 11 11 10 11 8 8 5 3 4 6 7 7 8 9 9 8 9 9 8 8 8 8 8 8 10 9 10 12
13 13 14 15 16 16 16 16 15 14 16 15 14 15 17 13 11 9 9 5 7 7 6 6 8 8 9 10 11 10 9 9 9 8 10 8 8 5 8 9 10 12 8
13 12 15 15 16 16 17 16 16 16 15 14 15 15 15 13 13 11 9 6 5 5 6 5 6 6 7 8 10 10 10 9 9 8 9 9 9 8 8 8 8 9 6
14 15 15 16 16 16 15 15 16 16 15 14 17 15 13 13 15 11 10 8 5 3 5 5 7 8 8 9 10 10 10 10 10 8 9 11 10 9 10 10 10 8 8
14 16 15 15 16 15 14 14 15 15 15 14 18 16 17 15 13 12 11 10 7 6 4 7 7 8 8 9 9 10 9 10 11 10 9 9 9 8 10 9 9 9 9
15 16 15 16 16 16 15 15 15 14 15 16 16 16 15 12 13 12 11 10 9 9 8 7 8 8 10 9 9 8 8 10 11 11 9 10 9 7 9 8 9 7 5
14 15 13 16 16 15 15 16 15 14 14 15 15 13 15 13 12 12 11 9 7 9 10 10 9 9 8 8 9 10 8 11 10 8 12 9 8 8 8 8 7 7 8
14 15 15 15 15 16 16 15 14 14 14 13 13 14 15 14 13 12 10 9 11 11 10 11 9 10 10 11 11 10 10 10 10 9 8 10 8 9 10 8 7 6 9
Wind_Direction
180 189 201 199 204 205 207 210 215 209 205 210 210 216 222 234 232 230 235 246 228 227 240 237 237 249 253 277 279 279 292 293 289 113 172 179 178 168 165 178 166 170 151
191 198 211 209 219 209 213 214 209 209 209 214 222 227 234 240 241 237 233 234 240 235 247 235 227 230 253 268 275 280 280 284 237 147 152 167 173 172 174 173 160 157 160
209 206 198 208 214 218 215 215 205 209 219 215 231 242 249 251 252 251 248 244 250 232 251 220 220 226 241 250 268 287 296 275 217 169 153 167 161 168 168 163 173 154 152
214 209 202 201 214 215 207 200 213 219 230 235 241 248 254 258 257 256 250 245 248 242 225 223 223 214 224 242 238 278 287 290 306 169 155 160 164 168 174 164 153 165 154
222 204 206 189 185 181 172 190 220 213 238 253 265 271 274 272 262 256 254 241 194 197 218 247 220 217 221 238 253 310 298 245 272 196 158 165 163 165 172 177 164 161 168
206 182 159 148 164 173 180 199 214 232 290 280 286 286 270 249 241 256 254 210 204 186 185 224 221 241 252 252 268 284 310 353 290 283 176 180 181 180 177 177 166 164 165
178 157 150 160 171 170 186 197 186 212 244 259 259 265 291 284 311 258 228 157 156 169 186 222 182 175 65 61 57 51 4 268 274 272 291 188 193 185 182 181 179 179 171
136 146 162 163 165 180 191 192 213 250 269 274 287 294 280 290 295 171 175 147 145 156 169 167 157 151 149 226 71 285 280 291 282 250 232 247 203 198 202 194 188 186 171
167 175 183 189 192 201 198 204 215 237 171 65 82 121 138 119 85 122 140 135 147 154 145 134 131 173 251 256 221 194 262 305 298 260 253 233 191 194 207 206 192 199 141
197 201 193 190 186 176 173 173 163 151 127 121 117 124 139 131 127 127 125 121 127 125 63 52 209 278 295 174 162 209 155 111 13 31 252 224 187 175 172 198 206 149 138
179 175 175 176 176 172 167 159 165 144 140 121 115 111 118 125 124 132 128 123 142 140 124 134 47 28 80 106 142 168 142 122 144 117 91 97 109 142 144 156 151 166 156
169 164 169 172 164 158 156 151 152 150 137 132 132 121 130 134 121 140 162 147 152 160 148 147 77 101 97 102 116 114 111 103 113 121 103 109 100 114 121 124 135 153 173
167 165 164 168 171 175 167 164 153 156 156 157 147 142 142 149 132 151 108 156 160 149 152 147 131 119 115 101 111 115 109 117 117 115 112 104 114 135 141 134 129 129 134
173 174 168 168 168 175 174 173 178 183 189 170 168 165 157 162 151 141 133 128 141 136 133 127 125 131 114 111 113 99 99 131 137 132 128 131 126 119 128 147 136 131 133
176 182 179 175 172 167 170 184 180 174 183 197 192 185 172 172 171 168 166 160 157 151 145 130 128 131 116 115 115 133 128 115 121 124 124 123 126 133 130 130 132 131 131
175 184 182 181 182 178 167 137 153 170 169 190 183 182 181 187 172 175 164 168 164 157 142 155 166 157 152 153 151 156 154 146 140 147 153 149 146 143 144 155 158 152 146
181 185 184 189 183 186 178 165 146 130 162 154 167 167 171 163 167 170 164 159 155 159 172 168 170 173 172 173 175 172 170 166 168 166 169 171 166 161 156 164 159 156 152
198 185 180 187 186 191 186 169 163 160 151 135 136 151 163 156 146 146 144 138 153 180 193 174 172 177 175 173 173 172 156 160 162 163 163 164 155 157 162 155 150 144 138
203 181 188 191 190 194 185 167 162 163 147 142 144 145 154 152 150 153 154 151 171 189 181 169 175 180 188 184 179 180 177 174 178 172 168 155 158 173 178 171 167 162 152
201 204 192 187 185 178 174 163 159 155 147 151 161 160 159 148 159 173 191 238 179 187 197 213 204 204 205 180 168 169 174 169 169 169 163 168 168 166 154 146 153 148 156
194 194 185 180 177 178 173 166 163 157 160 161 160 166 170 171 176 181 194 212 202 203 204 202 191 178 172 171 176 179 180 177 181 181 172 176 176 165 166 164 166 165 181
178 182 179 177 176 175 170 168 164 165 166 164 163 170 183 196 178 186 189 180 185 151 177 195 183 186 187 191 189 182 182 179 179 181 183 182 181 178 173 170 170 174 167
177 175 176 172 172 176 172 169 170 167 166 167 163 173 190 206 188 184 181 187 197 200 188 197 173 185 190 184 181 179 183 184 182 185 180 172 180 181 176 179 181 183 181
173 174 166 169 171 172 173 168 173 173 174 171 167 177 193 209 176 180 184 185 189 191 204 176 177 177 176 184 176 176 186 179 181 182 181 184 188 193 186 183 179 183 174
177 172 170 170 169 170 166 165 167 169 171 179 181 190 195 198 186 180 182 194 207 200 194 193 192 193 185 186 185 187 192 177 181 192 188 184 193 196 187 185 181 193 200
179 176 173 175 174 175 168 167 172 175 177 189 188 189 192 186 185 186 193 196 186 184 185 183 191 186 189 186 201 203 186 191 200 191 186 191 198 193 198 202 199 202 198